Greenwood, MS

11:01 AM CDT on September 26, 2017 (GMT -0500)
Greenwood-Leflore

Weather History for KGWO - October, 2012

Change the Weather History Date:

Wednesday, October 3, 2012

  Actual Average Record
Temperature  
Mean Temperature 65 °F 69 °F  
Max Temperature 79 °F 81 °F 97 °F (1954)
Min Temperature 51 °F 56 °F 37 °F (1975)
Degree Days  
Heating Degree Days 0 2  
Month to date heating degree days 7 5  
Since 1 July heating degree days 14 17  
Cooling Degree Days 0 5  
Month to date cooling degree days 0 16  
Year to date cooling degree days 2172 2063  
Growing Degree Days 16 (Base 50)    
Moisture  
Dew Point 57 °F    
Average Humidity 73    
Maximum Humidity 100    
Minimum Humidity 45    
Precipitation  
Precipitation 0.00 in 0.13 in 0.59 in (1995)
Month to date precipitation 0.24 0.38  
Year to date precipitation 34.47 38.11  
Sea Level Pressure  
Sea Level Pressure 30.06 in    
Wind  
Wind Speed 3 mph (SSW)    
Max Wind Speed 14 mph    
Max Gust Speed 17 mph    
Visibility 9 miles    
Events      
T = Trace of Precipitation, MM = Missing Value Source: NWS Daily Summary

Daily Weather History Graph

Daily Weather History Graph

Search for Another Location

Airport or City:

Trip Planner

Search our weather history database for the weather conditions in past years. The results will help you decide how hot, cold, wet, or windy it might be!

Date:

Astronomy

Oct. 03, 2012 Rise Set
Actual Time 6:56 AM CDT 6:41 PM CDT
Civil Twilight 6:31 AM CDT 7:06 PM CDT
Nautical Twilight 6:02 AM CDT 7:34 PM CDT
Astronomical Twilight 5:33 AM CDT 8:03 PM CDT
Moon 8:46 PM CDT (10/3) 10:08 AM CDT (10/3)
Length of Visible Light 12h 34m
Length of Day
11h 44m
Waning Gibbous, 88% of the Moon is Illuminated
Oct 3
Waning Gibbous
Oct 8
Last Quarter
Oct 15
New
Oct 21
First Quarter
Oct 29
Full

Hourly Weather History & Observations

Time (CDT) Temp. Dew Point Humidity Pressure Visibility Wind Dir Wind Speed Gust Speed Precip Events Conditions
12:53 AM 55.0 °F 54.0 °F 96% 29.98 in 7.0 mi Calm Calm - N/A   Clear
1:53 AM 54.0 °F 53.1 °F 97% 29.99 in 8.0 mi Calm Calm - N/A   Clear
2:53 AM 54.0 °F 53.1 °F 97% 30.00 in 7.0 mi Calm Calm - N/A   Clear
3:53 AM 53.1 °F 52.0 °F 96% 30.00 in 8.0 mi Calm Calm - N/A   Clear
4:53 AM 53.1 °F 52.0 °F 96% 30.01 in 9.0 mi Calm Calm - N/A   Clear
5:53 AM 53.1 °F 52.0 °F 96% 30.03 in 10.0 mi Calm Calm - N/A   Clear
6:53 AM 52.0 °F 51.1 °F 97% 30.04 in 10.0 mi Calm Calm - N/A   Clear
7:53 AM 57.0 °F 55.0 °F 93% 30.06 in 10.0 mi ENE 3.5 mph - N/A   Clear
8:53 AM 64.0 °F 57.9 °F 80% 30.08 in 10.0 mi South 5.8 mph - N/A   Clear
9:53 AM 68.0 °F 60.1 °F 76% 30.09 in 10.0 mi SSW 3.5 mph - N/A   Clear
10:53 AM 72.0 °F 59.0 °F 64% 30.09 in 10.0 mi SW 4.6 mph - N/A   Partly Cloudy
11:53 AM 73.0 °F 57.0 °F 57% 30.09 in 10.0 mi SSW 5.8 mph - N/A   Partly Cloudy
12:53 PM 75.9 °F 53.1 °F 45% 30.08 in 10.0 mi South 9.2 mph - N/A   Clear
1:53 PM 78.1 °F 55.0 °F 45% 30.06 in 10.0 mi SW 9.2 mph - N/A   Clear
2:53 PM 78.1 °F 55.9 °F 46% 30.04 in 10.0 mi WSW 8.1 mph - N/A   Clear
3:53 PM 79.0 °F 55.9 °F 45% 30.04 in 10.0 mi SW 9.2 mph - N/A   Partly Cloudy
4:53 PM 77.0 °F 57.0 °F 50% 30.04 in 10.0 mi SSW 5.8 mph - N/A   Scattered Clouds
5:53 PM 75.9 °F 59.0 °F 56% 30.05 in 10.0 mi South 4.6 mph - N/A   Scattered Clouds
6:53 PM 66.9 °F 63.0 °F 87% 30.06 in 10.0 mi Calm Calm - N/A   Clear
7:53 PM 64.9 °F 63.0 °F 93% 30.08 in 8.0 mi Calm Calm - N/A   Clear
8:53 PM 64.0 °F 63.0 °F 96% 30.10 in 8.0 mi NE 3.5 mph - N/A   Scattered Clouds
9:53 PM 63.0 °F 62.1 °F 97% 30.12 in 7.0 mi Calm Calm - N/A   Clear
10:53 PM 63.0 °F 61.0 °F 93% 30.13 in 9.0 mi Calm Calm - N/A   Clear
11:53 PM 62.1 °F 60.1 °F 93% 30.13 in 8.0 mi East 3.5 mph - N/A   Clear